Weather History for Monticello, KY

Change the Weather History Date:

Wednesday, March 13, 2013

  Actual Average Record
Temperature  
Mean Temperature 33 °F -  
Max Temperature 38 °F 59 °F 84 °F (1967)
Min Temperature 28 °F 36 °F -2 °F (1960)
Degree Days  
Heating Degree Days 32    
Moisture  
Dew Point 23 °F    
Average Humidity 68    
Maximum Humidity 96    
Minimum Humidity 41    
Precipitation  
Precipitation 0.00 in - - ()
Sea Level Pressure  
Sea Level Pressure 30.27 in    
Wind  
Wind Speed 8 mph (ESE)    
Max Wind Speed 17 mph    
Max Gust Speed 23 mph    
Visibility 9 miles    
Events Snow    
Averages and records for this station are not official NWS values.
T = Trace of Precipitation, MM = Missing Value Source: NWS Daily Summary

Daily Weather History Graph

Daily Weather History Graph

Search for Another Location

Airport:

Trip Planner

Search our weather history database for the weather conditions in past years. The results will help you decide how hot, cold, wet, or windy it might be!

Date:

Astronomy

Mar. 13, 2013 Rise Set
Actual Time 6:52 AM CDT 6:45 PM CDT
Civil Twilight 6:27 AM CDT 7:11 PM CDT
Nautical Twilight 5:57 AM CDT 7:41 PM CDT
Astronomical Twilight 5:26 AM CDT 8:11 PM CDT
Moon 7:35 AM CDT (3/13) 8:56 PM CDT (3/13)
Length of Visible Light 12h 43m
Length of Day
11h 52m
Waxing Crescent, 4% of the Moon is Illuminated
Mar 13
Waxing Crescent
Mar 19
First Quarter
Mar 27
Full
Apr 2
Last Quarter
Apr 10
New

Hourly Weather History & Observations

Time (CDT) Temp. Windchill Dew Point Humidity Pressure Visibility Wind Dir Wind Speed Gust Speed Precip Events Conditions
12:56 AM 30.0 °F - 28.0 °F 92% 30.16 in 10.0 mi Calm Calm - N/A   Mostly Cloudy
1:56 AM 30.0 °F - 29.1 °F 96% 30.15 in 10.0 mi Calm Calm - N/A   Partly Cloudy
2:56 AM 36.9 °F 33.1 °F 31.1 °F 80% 30.15 in 10.0 mi ESE 4.6 mph - N/A   Scattered Clouds
3:56 AM 36.0 °F - 31.1 °F 82% 30.14 in 10.0 mi Calm Calm - N/A   Mostly Cloudy
4:56 AM 36.9 °F 31.4 °F 30.0 °F 76% 30.14 in 10.0 mi East 6.9 mph - N/A   Mostly Cloudy
5:56 AM 34.9 °F 25.3 °F 25.2 °F 68% 30.16 in 10.0 mi East 15.0 mph - N/A   Clear
6:56 AM 32.9 °F 24.1 °F 22.1 °F 65% 30.19 in 10.0 mi ESE 11.5 mph - N/A   Clear
7:56 AM 34.9 °F 27.7 °F 23.0 °F 62% 30.21 in 10.0 mi East 9.2 mph - N/A   Overcast
8:39 AM 33.8 °F 23.5 °F 26.6 °F 75% 30.20 in 2.0 mi ESE 16.1 mph 23.0 mph 0.00 in Snow Light Snow
8:44 AM 32.0 °F 22.1 °F 26.6 °F 80% 30.21 in 1.8 mi SSE 13.8 mph 23.0 mph 0.00 in Snow Light Snow
8:56 AM 31.1 °F 22.4 °F 28.0 °F 88% 30.25 in 2.0 mi SE 10.4 mph - 0.00 in Snow Light Snow
9:04 AM 30.2 °F 19.8 °F 26.6 °F 86% 30.22 in 10.0 mi SE 13.8 mph 19.6 mph 0.00 in Snow Light Snow
9:13 AM 33.8 °F 25.3 °F 26.6 °F 75% 30.22 in 10.0 mi ESE 11.5 mph 20.7 mph 0.00 in Snow Light Snow
9:56 AM 32.0 °F 21.6 °F 24.1 °F 73% 30.27 in 7.0 mi SE 15.0 mph 21.9 mph 0.00 in Snow Light Snow
10:56 AM 36.0 °F 26.3 °F 23.0 °F 59% 30.29 in 10.0 mi ESE 16.1 mph - 0.00 in   Mostly Cloudy
11:56 AM 36.9 °F 28.7 °F 22.1 °F 55% 30.30 in 10.0 mi East 12.7 mph 17.3 mph 0.00 in   Mostly Cloudy
12:56 PM 34.9 °F 25.7 °F 21.0 °F 57% 30.31 in 10.0 mi ESE 13.8 mph 21.9 mph 0.00 in   Mostly Cloudy
1:56 PM 34.9 °F 25.7 °F 20.1 °F 55% 30.31 in 10.0 mi ESE 13.8 mph 20.7 mph 0.00 in   Mostly Cloudy
3:56 PM 38.8 °F 29.7 °F 17.1 °F 41% 30.32 in 10.0 mi SE 17.3 mph - N/A   Scattered Clouds
4:56 PM 36.0 °F 26.0 °F 17.1 °F 46% 30.34 in 10.0 mi ESE 17.3 mph 21.9 mph N/A   Mostly Cloudy
5:56 PM 34.0 °F 26.0 °F 17.1 °F 50% 30.35 in 10.0 mi SE 10.4 mph 19.6 mph N/A   Overcast
6:56 PM 32.0 °F 22.1 °F 18.1 °F 57% 30.38 in 10.0 mi SE 13.8 mph 20.7 mph N/A   Overcast
7:56 PM 32.0 °F 24.8 °F 18.1 °F 57% 30.39 in 10.0 mi SE 8.1 mph - N/A   Overcast
8:56 PM 31.1 °F 21.9 °F 19.0 °F 61% 30.41 in 10.0 mi SE 11.5 mph - N/A   Overcast
9:56 PM 30.0 °F 20.5 °F 20.1 °F 67% 30.42 in 10.0 mi SE 11.5 mph - 0.00 in   Overcast
10:56 PM 28.0 °F 21.7 °F 20.1 °F 72% 30.43 in 10.0 mi SE 5.8 mph - 0.00 in   Mostly Cloudy
11:56 PM 28.0 °F 20.8 °F 18.1 °F 66% 30.43 in 10.0 mi SE 6.9 mph - N/A   Mostly Cloudy